Location: San Gennaro Vesuviano
(40.8833°N, 14.5333°E)
Time: 10:55:11
(UTC+00:00)

Cosmos 1954 Rocket - Pass Details

Date: 22 April 2021
Orbit: 752 x 781 km, 74.0° (Epoch: 10 May)

Event Time Altitude Azimuth Distance (km) Brightness Sun altitude
Exits shadow 20:19:30 19° 217° (SW) 1,742 5.7 -25.0°
Maximum altitude 20:23:09 59° 292° (WNW) 867 4.4 -25.5°
Drops below altitude 10° 20:28:15 10° 12° (NNE) 2,284 6.9 -26.1°
Sets 20:30:40 0° 16° (NNE) 3,214 7.7 -26.4°
